Regional Weather Roundup
Issued by NWS Little Rock, AR

Home | Current Version | Previous Version | Text Only | Print | Product List | Glossary On
Versions: 1 2 3 4 5 6 7 8 9 10 11 12 13 14 15 16 17 18 19 20 21 22 23 24 25 26 27 28 29 30 31 32 33 34 35 36 37 38 39 40 41 42 43 44 45 46 47 48 49 50
583
ASUS44 KLZK 031105
RWRLZK

WEATHER ROUNDUP FOR ARKANSAS
NATIONAL WEATHER SERVICE LITTLE ROCK AR
600 AM CDT TUE MAY 03 2016

NOTE: "FAIR" INDICATES FEW OR NO CLOUDS BELOW 12,000 FEET WITH NO
SIGNIFICANT WEATHER AND/OR OBSTRUCTIONS TO VISIBILITY.

ARZ001-003-010-029-031200-
NORTHWEST ARKANSAS

CITY           SKY/WX    TMP DP  RH WIND       PRES   REMARKS
FAYETTEVILLE   FOG       37  37 100 CALM      30.08R VSB 1/2
FORT SMITH     PTCLDY    45  42  89 W5        30.08R
HARRISON       CLEAR     46  45  96 NW5       30.05S
BENTONVILLE    CLEAR     43  37  81 CALM      30.08R
ROGERS         FOG       41  40  96 CALM      30.08S VSB 1/2
SILOAM SPGS    CLOUDY    39  30  70 CALM      30.09R VSB 1/4
HIGHFILL       CLEAR     40  40 100 CALM      30.07R
SPRINGDALE     MOCLDY    43  43 100 CALM      30.09
$$

ARZ004-005-016-031200-
NORTH CENTRAL ARKANSAS

CITY           SKY/WX    TMP DP  RH WIND       PRES   REMARKS
BATESVILLE     PTCLDY    50  45  81 CALM      30.03S
FLIPPIN        CLOUDY   N/A N/A N/A NW5       30.02R
MTN HOME       CLOUDY    50  47  89 CALM      30.03S
$$

ARZ040-041-031200-
WEST CENTRAL ARKANSAS

CITY           SKY/WX    TMP DP  RH WIND       PRES   REMARKS
MENA           PTCLDY    43  43 100 CALM      30.07R
MOUNT IDA      PTCLDY    46  44  93 W3        30.03R
$$

ARZ009-017-025-026-028-031200-
NORTHEAST ARKANSAS

CITY           SKY/WX    TMP DP  RH WIND       PRES   REMARKS
CORNING          N/A     54  50  87 NW6       30.02S
JONESBORO      MOCLDY    55  50  83 CALM      30.01S
NEWPORT        MOCLDY    52  50  93 N6        30.03S
WALNUT RIDGE   PTCLDY    54  46  76 N7        30.00F
BLYTHEVILLE    CLOUDY    56  52  86 N9        30.00S
$$

ARZ022-023-033-042-044-031200-
CENTRAL ARKANSAS

CITY           SKY/WX    TMP DP  RH WIND       PRES   REMARKS
LITTLE ROCK    MOCLDY    57  48  72 N9        30.03R
N LITTLE ROCK    N/A     54  49  84 N3        30.02R
JACKSONVILLE   CLOUDY    55  50  84 W5        30.02R
SEARCY         CLOUDY    54  49  83 NW3       30.04R
HOT SPRINGS    CLOUDY    54  49  83 NW5       30.04R
RUSSELLVILLE   PTCLDY    50  47  89 N3        30.05R
$$

ARZ036-031200-
EAST ARKANSAS

CITY           SKY/WX    TMP DP  RH WIND       PRES   REMARKS
WEST MEMPHIS   CLOUDY    54  53  97 N5        30.00R
$$

ARZ050-053-066-070-073-031200-
SOUTHWEST ARKANSAS

CITY           SKY/WX    TMP DP  RH WIND       PRES   REMARKS
ARKADELPHIA    PTSUNNY   56  56 100 NW6       30.04R
CAMDEN         MOCLDY    55  50  82 N3        30.02S
TEXARKANA      CLEAR     50  46  86 NW6       30.05R
EL DORADO      CLOUDY    54  53  97 NW6       30.02R
DE QUEEN       PTCLDY    44  44 100 CALM      30.05S FOG
$$

ARZ056-057-069-031200-
SOUTHEAST ARKANSAS

CITY           SKY/WX    TMP DP  RH WIND       PRES   REMARKS
PINE BLUFF     PTCLDY    54  50  86 NW6       30.02R
STUTTGART      CLEAR     54  46  76 NW7       30.02R
MONTICELLO     CLOUDY    57  54  89 VRB3      30.00R

$$






USA.gov is the U.S. government's official web portal to all federal, state and local government web resources and services.